• In Romania
  • List of Countries
  • For 7 days
  • Water Temperature
  • Satellite Maps
  • Weather Map
  • Weather Widgets
  • user-avatar
    Login

    Hourly Weather Escaldes-Engordany

    Today, 20 November, Monday

    Time Temperature Precipitation Wind Pressure Humidity
    00:00 +2°C° 0 mm 2 mps 641 mmHg 57%
    01:00 +2°C° 0 mm 2 mps 641 mmHg 57%
    02:00 +2°C° 0 mm 2 mps 641 mmHg 58%
    03:00 +1°C° 0 mm 2 mps 641 mmHg 58%
    04:00 +2°C° 0 mm 2 mps 641 mmHg 58%
    05:00 +2°C° 0 mm 2 mps 641 mmHg 57%
    06:00 +2°C° 0 mm 2 mps 641 mmHg 57%
    07:00 +4°C° 0 mm 1 mps 642 mmHg 54%
    08:00 +6°C° 0 mm 1 mps 642 mmHg 50%
    09:00 +8°C° 0 mm 1 mps 643 mmHg 47%
    10:00 +9°C° 0 mm 1 mps 644 mmHg 44%
    11:00 +11°C° 0 mm 1 mps 644 mmHg 42%
    12:00 +12°C° 0 mm 1 mps 644 mmHg 40%
    13:00 +12°C° 0 mm 1 mps 644 mmHg 43%
    14:00 +11°C° 0 mm 1 mps 643 mmHg 47%
    15:00 +11°C° 0 mm 1 mps 643 mmHg 50%
    16:00 +9°C° 0 mm 1 mps 642 mmHg 56%
    17:00 +7°C° 0 mm 1 mps 641 mmHg 62%
    18:00 +5°C° 0 mm 1 mps 641 mmHg 68%
    19:00 +5°C° 0 mm 1 mps 641 mmHg 68%
    20:00 +5°C° 0 mm 1 mps 641 mmHg 67%
    21:00 +5°C° 0 mm 1 mps 641 mmHg 66%
    22:00 +4°C° 0 mm 1 mps 641 mmHg 65%
    23:00 +4°C° 0 mm 1 mps 641 mmHg 63%

    Tomorrow, 21 November, Tuesday

    Time Temperature Precipitation Wind Pressure Humidity
    00:00 +4°C° 0 mm 1 mps 641 mmHg 62%
    01:00 +4°C° 0 mm 1 mps 641 mmHg 60%
    02:00 +4°C° 0 mm 1 mps 641 mmHg 58%
    03:00 +4°C° 0 mm 1 mps 640 mmHg 56%
    04:00 +4°C° 0 mm 1 mps 640 mmHg 53%
    05:00 +4°C° 0 mm 1 mps 640 mmHg 51%
    06:00 +4°C° 0 mm 1 mps 640 mmHg 48%
    07:00 +6°C° 0 mm 1 mps 641 mmHg 44%
    08:00 +8°C° 0 mm 1 mps 642 mmHg 41%
    09:00 +9°C° 0 mm 1 mps 642 mmHg 37%
    10:00 +11°C° 0 mm 1 mps 642 mmHg 35%
    11:00 +12°C° 0 mm 1 mps 643 mmHg 32%
    12:00 +14°C° 0 mm 1 mps 643 mmHg 30%
    13:00 +13°C° 0 mm 1 mps 642 mmHg 34%
    14:00 +13°C° 0 mm 1 mps 642 mmHg 38%
    15:00 +12°C° 0 mm 1 mps 641 mmHg 43%
    16:00 +10°C° 0 mm 1 mps 641 mmHg 48%
    17:00 +8°C° 0 mm 1 mps 640 mmHg 53%
    18:00 +6°C° 0 mm 1 mps 639 mmHg 57%
    19:00 +5°C° 0 mm 1 mps 639 mmHg 57%
    20:00 +5°C° 0 mm 1 mps 639 mmHg 56%
    21:00 +5°C° 0 mm 1 mps 639 mmHg 55%
    22:00 +5°C° 0 mm 1 mps 639 mmHg 55%
    23:00 +5°C° 0 mm 1 mps 639 mmHg 55%

    Day after tomorrow, 22 November, Wednesday

    Time Temperature Precipitation Wind Pressure Humidity
    00:00 +5°C° 0 mm 1 mps 638 mmHg 54%
    01:00 +4°C° 0 mm 1 mps 638 mmHg 53%
    02:00 +4°C° 0 mm 1 mps 638 mmHg 52%
    03:00 +4°C° 0 mm 1 mps 638 mmHg 50%
    04:00 +4°C° 0 mm 1 mps 638 mmHg 49%
    05:00 +4°C° 0 mm 1 mps 637 mmHg 47%
    06:00 +4°C° 0 mm 1 mps 637 mmHg 45%
    07:00 +5°C° 0 mm 1 mps 638 mmHg 43%
    08:00 +7°C° 0 mm 1 mps 639 mmHg 40%
    09:00 +9°C° 0 mm 1 mps 639 mmHg 37%
    10:00 +9°C° 0 mm 2 mps 640 mmHg 35%
    11:00 +12°C° 0 mm 2 mps 640 mmHg 33%
    12:00 +13°C° 0 mm 2 mps 640 mmHg 31%
    13:00 +12°C° 0 mm 2 mps 640 mmHg 35%
    14:00 +12°C° 0 mm 2 mps 640 mmHg 38%
    15:00 +10°C° 0 mm 2 mps 639 mmHg 41%
    16:00 +9°C° 0 mm 1 mps 639 mmHg 45%
    17:00 +7°C° 0 mm 1 mps 638 mmHg 49%
    18:00 +5°C° 0 mm 1 mps 638 mmHg 53%
    19:00 +5°C° 0 mm 1 mps 638 mmHg 51%
    20:00 +5°C° 0 mm 1 mps 638 mmHg 49%
    21:00 +4°C° 0 mm 1 mps 638 mmHg 46%
    22:00 +4°C° 0 mm 1 mps 638 mmHg 45%
    23:00 +4°C° 0 mm 1 mps 638 mmHg 43%

    23 November, Thursday

    Time Temperature Precipitation Wind Pressure Humidity
    00:00 +4°C° 0 mm 1 mps 638 mmHg 41%
    01:00 +4°C° 0 mm 1 mps 638 mmHg 40%
    02:00 +4°C° 0 mm 1 mps 638 mmHg 39%
    03:00 +4°C° 0 mm 1 mps 638 mmHg 37%
    04:00 +4°C° 0 mm 1 mps 639 mmHg 37%
    05:00 +4°C° 0 mm 1 mps 639 mmHg 36%
    06:00 +4°C° 0 mm 1 mps 639 mmHg 36%
    07:00 +6°C° 0 mm 1 mps 640 mmHg 35%
    08:00 +7°C° 0 mm 1 mps 641 mmHg 35%
    09:00 +9°C° 0 mm 1 mps 642 mmHg 34%
    10:00 +10°C° 0 mm 1 mps 642 mmHg 33%
    11:00 +12°C° 0 mm 2 mps 643 mmHg 32%
    12:00 +13°C° 0 mm 2 mps 643 mmHg 31%
    13:00 +12°C° 0 mm 2 mps 643 mmHg 35%
    14:00 +12°C° 0 mm 2 mps 643 mmHg 39%
    15:00 +10°C° 0 mm 2 mps 642 mmHg 42%
    16:00 +8°C° 0 mm 2 mps 642 mmHg 48%
    17:00 +7°C° 0 mm 1 mps 641 mmHg 54%
    18:00 +5°C° 0 mm 1 mps 641 mmHg 60%
    19:00 +5°C° 0 mm 1 mps 641 mmHg 60%
    20:00 +4°C° 0 mm 1 mps 641 mmHg 59%
    21:00 +4°C° 0 mm 1 mps 641 mmHg 58%
    22:00 +3°C° 0 mm 2 mps 641 mmHg 61%
    23:00 +3°C° 0 mm 2 mps 641 mmHg 65%

    24 November, Friday

    Time Temperature Precipitation Wind Pressure Humidity
    00:00 +3°C° 0 mm 2 mps 640 mmHg 69%
    01:00 +3°C° 0 mm 2 mps 640 mmHg 71%
    02:00 +3°C° 0 mm 2 mps 640 mmHg 74%
    03:00 +3°C° 0 mm 2 mps 640 mmHg 76%
    04:00 +2°C° 0 mm 2 mps 640 mmHg 75%
    05:00 +2°C° 0 mm 2 mps 640 mmHg 74%
    06:00 +2°C° 0 mm 2 mps 639 mmHg 73%
    07:00 +4°C° 0 mm 2 mps 640 mmHg 65%
    08:00 +5°C° 0 mm 2 mps 641 mmHg 57%
    09:00 +7°C° 0 mm 2 mps 641 mmHg 49%
    10:00 +8°C° 0 mm 2 mps 642 mmHg 43%
    11:00 +9°C° 0 mm 3 mps 642 mmHg 38%
    12:00 +11°C° 0 mm 3 mps 642 mmHg 32%
    13:00 +10°C° 0 mm 3 mps 642 mmHg 34%
    14:00 +10°C° 0 mm 3 mps 641 mmHg 36%
    15:00 +9°C° 0 mm 2 mps 641 mmHg 39%
    16:00 +7°C° 0 mm 2 mps 640 mmHg 45%
    17:00 +5°C° 0 mm 2 mps 639 mmHg 51%
    18:00 +4°C° 0 mm 1 mps 639 mmHg 57%
    19:00 +3°C° 0 mm 2 mps 639 mmHg 58%
    20:00 +3°C° 0 mm 2 mps 639 mmHg 60%
    21:00 +3°C° 0 mm 2 mps 639 mmHg 61%
    22:00 +4°C° 0 mm 2 mps 639 mmHg 60%
    23:00 +4°C° 0 mm 2 mps 639 mmHg 60%

    25 November, Saturday

    Time Temperature Precipitation Wind Pressure Humidity
    00:00 +4°C° 0 mm 2 mps 639 mmHg 59%
    01:00 +4°C° 0 mm 2 mps 639 mmHg 58%
    02:00 +4°C° 0 mm 2 mps 639 mmHg 57%
    03:00 +4°C° 0 mm 2 mps 639 mmHg 56%
    04:00 +4°C° 0 mm 2 mps 639 mmHg 55%
    05:00 +4°C° 0 mm 2 mps 639 mmHg 54%
    06:00 +4°C° 0 mm 2 mps 639 mmHg 53%
    07:00 +5°C° 0 mm 2 mps 639 mmHg 50%
    08:00 +6°C° 0 mm 2 mps 640 mmHg 48%
    09:00 +8°C° 0 mm 2 mps 641 mmHg 45%
    10:00 +9°C° 0 mm 2 mps 641 mmHg 43%
    11:00 +12°C° 0 mm 2 mps 642 mmHg 40%
    12:00 +12°C° 0 mm 3 mps 642 mmHg 37%
    13:00 +13°C° 0 mm 2 mps 642 mmHg 41%
    14:00 +12°C° 0 mm 2 mps 642 mmHg 45%
    15:00 +12°C° 0 mm 2 mps 641 mmHg 48%
    16:00 +9°C° 0 mm 2 mps 641 mmHg 52%
    17:00 +7°C° 0 mm 2 mps 641 mmHg 57%
    18:00 +6°C° 0 mm 1 mps 640 mmHg 61%
    19:00 +6°C° 0 mm 1 mps 640 mmHg 59%
    20:00 +6°C° 0 mm 1 mps 641 mmHg 57%
    21:00 +6°C° 0 mm 1 mps 641 mmHg 56%
    22:00 +6°C° 0 mm 1 mps 641 mmHg 57%
    23:00 +6°C° 0 mm 1 mps 641 mmHg 58%
    Show more